Regional Weather Roundup
Issued by NWS

Home | Current Version | Previous Version | Text Only | Print | Product List | Glossary On
Versions: 1 2 3 4 5 6 7 8 9 10 11 12 13 14 15 16 17 18 19 20 21 22 23 24 25 26 27 28 29 30 31 32 33 34 35 36 37 38 39 40 41 42 43 44 45 46 47 48 49 50
000
ASUS45 KTFX 261319
RWRMT
MONTANA HOURLY WEATHER ROUNDUP
NATIONAL WEATHER SERVICE GREAT FALLS MT
619 AM MST WED NOV 26 2014

NOTE: "FAIR" INDICATES FEW OR NO CLOUDS BELOW 12000 FEET WITH NO
SIGNIFICANT WEATHER AND/OR OBSTRUCTIONS TO VISIBILITY.

* THESE STATIONS ARE NOT UNDER NWS QUALITY CONTROL. THEY DO NOT
   REPORT WEATHER SUCH AS PRECIPITATION OR FOG.

MTZ001>007-043-261400-
WEST OF THE DIVIDE
CITY           SKY/WX    TMP DP  RH WIND       PRES   REMARKS
KALISPELL      LGT SNOW  30  30 100 CALM      30.14S VSB 1 1/2
MISSOULA       LGT SNOW  30  30 100 CALM      30.15S VSB 1 1/2
BUTTE          LGT SNOW  28  27  96 CALM      30.08S
MULLAN PASS    LGT SNOW  34  30  85 VRB6      30.07R VSB 3/4  WCI  29
* ESSEX        N/A       29  28  96 N/A        N/A
* EUREKA APT   PTCLDY    32  30  92 CALM      30.16S VSB 1 3/4
* LIBBY APT    MOCLDY    32  30  92 CALM      30.16S VSB 2 1/2
* LINCOLN      N/A       28  27  96 S1         N/A
* LOOKOUT PASS N/A       36  36 100 VRB4G11    N/A
* POLSON       N/A       30  30 100 N/A        N/A
* RONAN APT    CLOUDY    30  28  92 N/A        N/A
* SEELEY LAKE  N/A       28  27  96 N/A        N/A
* THOMP F APT  CLOUDY   N/A N/A N/A N/A        N/A
* YAAK HILL    N/A       32  30  92 N/A        N/A
$$

MTZ008-052>055-261400-
SOUTHWEST MONTANA
CITY           SKY/WX    TMP DP  RH WIND       PRES   REMARKS
BOZEMAN        LGT SNOW  28  27  96 CALM      30.11S VSB 3
DILLON         MOCLDY    34  28  79 W13       30.07R WCI  25
* W YELLOWSTON MOCLDY    34  32  92 SW7G13     N/A   WCI  28
* ENNIS APT    MOCLDY    36  30  79 NE6        N/A   WCI  31
* THREE FORKS  MOCLDY    30   9  41 N/A        N/A
* BOULDER HILL N/A       25  23  92 S3         N/A
* MONIDA PASS  N/A       39  28  65 W20        N/A   WCI  29
* RAYNOLDS PAS N/A       39  27  62 SW6G15     N/A   WCI  35
* WHITEHALL    N/A       29  28  96 N/A        N/A
* WISE RIVER   N/A       39  33  79 W13G22     N/A   WCI  31
$$

MTZ009>010-012-014-046-048-049-054-261400-
EAST SLOPES AND CENTRAL MONTANA
CITY           SKY/WX    TMP DP  RH WIND       PRES   REMARKS
CUT BANK       CLOUDY    25  25 100 SE5       30.11S WCI  19
GREAT FALLS    LGT SNOW  30  28  92 SW5       30.12F VSB 1 3/4 WCI  25
HELENA         LGT SNOW  30  28  92 CALM      30.12S VSB 1 1/2
MALMSTROM AFB  LGT SNOW  28  30 N/A SW5       30.16S WCI  22
* DEARBORN     N/A       31  30  96 N/A        N/A
* EAST GLACIER N/A       23  22  96 N/A        N/A
* MONARCH      N/A       23  20  88 S4         N/A
* PENDROY      N/A       25  25 100 W2         N/A
* ROGERS PASS  N/A       25  24  96 N/A        N/A
* SAINT MARY   N/A       26  23  88 SE2        N/A
* SWEET GRASS  N/A       26  26 100 S9         N/A   WCI  17
* WHITE SULPH  N/A       24  23  96 N1         N/A
$$

MTZ011-013-016-021-035-040-045-047-050-051-261400-
NORTH CENTRAL MONTANA
CITY           SKY/WX    TMP DP  RH WIND       PRES   REMARKS
HAVRE          LGT SNOW  27  25  92 E5        30.20R VSB 3    WCI  21
LEWISTOWN      LGT SNOW  27  25  92 CALM      30.12F
* N BAR RANCH  FOG       25  23  92 CALM      30.13S VSB 3
* CHINOOK      CLOUDY    27  25  92 CALM      30.22R VSB 3
* FORT BENTON  CLOUDY    30  28  92 NE3       30.18F
* CHESTER      N/A       27  25  92 N/A        N/A
* DENTON       N/A       27  26  96 SE1        N/A
* GEYSER       N/A       26  24  92 E2         N/A
* JUDITH GAP   N/A       23  23 100 SE6        N/A   WCI  16
* LOMA         N/A       29  29 100 NE4        N/A
$$

MTZ017>020-022>027-061-062-261400-
NORTHEAST MONTANA
CITY           SKY/WX    TMP DP  RH WIND       PRES   REMARKS
GLASGOW        CLOUDY    21  16  81 E5        30.24R WCI  14
GLENDIVE       CLOUDY    23  19  85 N5        30.23R WCI  16
JORDAN         CLOUDY    27  23  85 CALM      30.20S
SIDNEY         CLOUDY    18  12  77 N8        30.28R WCI   8
WOLF POINT     CLOUDY    19  14  81 NE7       30.28R WCI  10
* BEAVER HILL  N/A       21  19  92 W3         N/A
* CIRCLE       N/A       23  20  88 N/A        N/A
* LINDSAY DVD  N/A       20  19  96 NW9        N/A   WCI  10
* NAVAJO       N/A        9   6  87 VRB6       N/A   WCI  -1
* PLENTYWOOD A MOCLDY     9   3  76 N7        30.27R WCI  -2
* POPLAR APT   MOCLDY    18  12  77 N/A       30.28R
* SACO         N/A       23  19  85 NE6        N/A   WCI  16
* SCOBEY APT   PTCLDY    12   1  61 NW6        N/A   WCI   2
$$

MTZ028>042-056>058-261400-
SOUTHCENTRAL AND SOUTHEAST MONTANA
CITY           SKY/WX    TMP DP  RH WIND       PRES   REMARKS
BAKER          CLOUDY    25  21  85 NW3       30.19R
BILLINGS       LGT SNOW  28  27  96 SW6       30.17S VSB 2    WCI  21
LIVINGSTON     LGT SNOW  27  25  92 SE3       30.11S VSB 1
MILES CITY     CLOUDY    28  25  89 CALM      30.20R
* BIG TIMBER A CLOUDY    25  25 100 CALM      30.13F VSB 1 1/4
* FORSYTH APT  CLOUDY    28  27  96 CALM      30.20S VSB 2
* LAUREL APT   CLOUDY    28  21  75 N/A        N/A
* ALZADA       N/A       25  24  96 SW4        N/A
* HYSHAM       N/A       28  25  89 W6         N/A   WCI  21
* REED POINT   N/A       27  27 100 E2         N/A
* ROSCOE HILL  N/A       22  19  88 SW1        N/A
$$

REGIONAL REPORTS...DAKOTAS
CITY           SKY/WX    TMP DP  RH WIND       PRES   REMARKS
WILLISTON      CLOUDY    12   7  80 NE10      30.28R WCI  -1
DICKINSON      LGT SNOW  19  16  88 CALM      30.18R
BEACH          LGT SNOW  19  19 100 N5        30.20R WCI  12
CROSBY         CLOUDY     5   1  83 N9        30.31R WCI  -9
TIOGA          CLOUDY     9   7  91 N6        30.28R WCI  -1
BISMARCK       CLOUDY     7   1  76 NE6       30.30S WCI  -4
GRAND FORKS    CLOUDY     0  -8  68 N15       30.37R WCI -19
FARGO          HAZE       3   0  87 N15       30.29R VSB 3    WCI -16
BUFFALO SD     CLOUDY    25  19  78 S3        30.11R
RAPID CITY     CLOUDY    25  19  78 N8        30.17S WCI  16
$$

REGIONAL REPORTS...WYOMING/IDAHO/WASHINGTON
CITY           SKY/WX    TMP DP  RH WIND       PRES   REMARKS
GILLETTE       CLOUDY    25  21  85 W8        30.15R WCI  16
SHERIDAN       LGT SNOW  27  23  85 CALM      30.16S VSB 2
CODY           CLOUDY    23  21  92 CALM      30.10F
YELLOWSTONE LA CLOUDY    32  28  85 VRB6      30.12R WCI  26
SALMON         CLOUDY    32  30  92 CALM      30.17R VSB M1/4
MULLAN PASS    LGT SNOW  34  30  85 VRB6      30.07S VSB 3/4  WCI  29
SAND POINT     LGT SNOW  32  32 100 CALM      30.18R VSB 3
SPOKANE        FOG       34  34 100 NE5       30.15R VSB M1/4 WCI  29
$$

REGIONAL REPORTS...ALBERTA
CITY           SKY/WX    TMP DP  RH WIND       PRES   REMARKS
CALGARY        FOG       23  21  92 SE6       30.09F VSB 1 1/2 WCI  16
LETHBRIDGE     FOG       27  25  92 E9        30.12F WCI  18
MEDICINE HAT   LGT SNOW  23  21  92 E3        30.20S
EDMONTON       LGT SNOW  16  12  84 SE7       30.15F WCI   6
WATERTON GATE  N/A       30  23  75 SW5        N/A   WCI  25
CARDSTON       N/A       28  25  89 S2         N/A
MILK RIVER     N/A       27  27 100 S8         N/A   WCI  19
$$

REGIONAL REPORTS...SASKATCHEWAN
CITY           SKY/WX    TMP DP  RH WIND       PRES   REMARKS
SWIFT CURRENT  PTCLDY     7   5  91 SE10      30.19F WCI  -7
MOOSE JAW      MOCLDY     0  -2  91 E3        30.35R
REGINA         N/A       -4  -8  83 NE6       30.34R WCI -17
VAL MARIE      N/A       21  19  92 E7         N/A   WCI  12
ASSINIBOIA     N/A        7   3  83 E7         N/A   WCI  -5
CORONACH       N/A        9   7  91 N2         N/A

$$




USA.gov is the U.S. government's official web portal to all federal, state and local government web resources and services.